This demonstration page uses our WeatherBlox Daily Observations layout. Learn more.

Left ArrowRight Arrow

41.55636, -103.73856

Hourly Observations for October 30, 2021

Temp ( °F °C ) Dew Point ( °F °C ) Humidity (%) Winds ( mph kmh ) Pressure ( in mb ) Visibility ( mi km ) Precip ( " mm )
12:58 am 00:58 Clear 44 6.6 26 -3.2 50 50 SW 9 15 29.87 1012 10 16 0.00 0.00
1:58 am 01:58 Clear 41 5 28 -2 61 61 SW 8 13 29.86 1011 10 16 0.00 0.00
2:58 am 02:58 Clear 43 5.9 28 -2.1 57 57 W 10 17 29.85 1011 10 16 0.00 0.00
3:58 am 03:58 Clear 43 6 29 -1.8 58 58 W 15 24 29.84 1011 10 16 0.00 0.00
4:58 am 04:58 Clear 46 7.9 29 -1.7 51 51 W 14 22 29.85 1011 10 16 0.00 0.00
5:58 am 05:58 Clear 51 10.6 30 -1.3 44 44 W 9 15 29.88 1012 10 16 0.00 0.00
6:58 am 06:58 Clear 48 8.7 31 -0.6 52 52 WNW 17 28 29.92 1013 10 16 0.00 0.00
7:58 am 07:58 Sunny 44 6.6 31 -0.4 61 61 W 7 11 29.97 1015 10 16 0.00 0.00
8:58 am 08:58 Sunny 51 10.8 32 -0.1 47 47 NNE 8 13 30.00 1016 10 16 0.00 0.00
9:58 am 09:58 Sunny 51 10.7 35 1.8 54 54 NNE 16 26 30.02 1017 10 16 0.00 0.00
10:58 am 10:58 Sunny 53 11.4 35 1.6 51 51 N 12 19 30.04 1017 10 16 0.00 0.00
11:58 am 11:58 Sunny 54 12 35 1.7 50 50 N 7 11 30.05 1018 10 16 0.00 0.00
12:58 pm 12:58 Sunny 55 12.9 37 2.8 51 51 N 14 22 30.03 1017 10 16 0.00 0.00
1:58 pm 13:58 Mostly Sunny 56 13.1 35 1.9 47 47 N 10 17 30.04 1017 10 16 0.00 0.00
2:58 pm 14:58 Mostly Cloudy 56 13.6 37 2.6 48 48 NNE 8 13 30.03 1017 10 16 0.00 0.00
3:58 pm 15:58 Mostly Cloudy 55 12.5 36 2.2 50 50 N 13 20 30.03 1017 10 16 0.00 0.00
4:58 pm 16:58 Mostly Cloudy 54 12 33 0.6 46 46 NNE 15 24 30.05 1018 10 16 0.00 0.00
5:58 pm 17:58 Mostly Cloudy 48 8.8 34 1.3 60 60 NNE 13 20 30.10 1019 10 16 0.00 0.00
6:58 pm 18:58 Cloudy 46 7.6 35 1.5 66 66 NE 13 20 30.16 1021 10 16 0.00 0.00
7:58 pm 19:58 Mostly Cloudy 44 6.6 35 1.5 70 70 NNE 13 20 30.19 1022 10 16 0.00 0.00
8:58 pm 20:58 Mostly Cloudy 42 5.5 33 0.8 72 72 NE 9 15 30.18 1022 10 16 0.00 0.00
9:58 pm 21:58 Cloudy 41 5.1 34 0.9 75 75 NE 10 17 30.20 1023 10 16 0.00 0.00
10:58 pm 22:58 Cloudy 40 4.4 33 0.7 77 77 NE 12 19 30.22 1023 10 16 0.00 0.00
11:58 pm 23:58 Cloudy 39 3.7 34 0.9 82 82 NE 8 13 30.22 1023 10 16 0.00 0.00

Powered by AerisWeather